CYP106 LCLK-OMDB

Flight info

Callsign CYP106
Flight time 4h 8m
Altitude 33000
Route EMEDA1D EMEDA L13 STEPA N71 LAKTO/N0461F350 N307 MELDO A16 CVO L315 HGD M872 BDB Y214 KUPMI/N0461F370 Y214 RAPMA DCT KUVSO DCT KATIT DCT PEKEM M628 RIGIL G783 ELUDA/N0472F350 G783 ASPED Q308 KIPOK/N0475F340 Q568 IMPED IMPED3C
Aircraft A320/M-SDE3FGHIRWY/LB1

Departure

Time 2026-05-05 10:44
Airport Larnaca International Airport (LCLK)

Arrival

Time 2026-05-05 14:52
Airport Dubai International Airport (OMDB)
Time Latitude Longitude Altitude Speed Heading
2026-05-05 10:02 34.86952 33.61127 20 ft 0 kts 225°
2026-05-05 10:33 34.86958 33.61135 20 ft 4 kts 225°
2026-05-05 10:34 34.86977 33.61158 25 ft 4 kts 227°
2026-05-05 10:34 34.86993 33.61183 21 ft 4 kts 246°
2026-05-05 10:34 34.87000 33.61207 21 ft 4 kts 241°
2026-05-05 10:34 34.87013 33.61220 21 ft 4 kts 158°
2026-05-05 10:35 34.87033 33.61202 20 ft 3 kts 135°
2026-05-05 10:35 34.87035 33.61199 20 ft 0 kts 135°
2026-05-05 10:37 34.87034 33.61200 20 ft 1 kts 135°
2026-05-05 10:37 34.87014 33.61223 21 ft 5 kts 136°
2026-05-05 10:37 34.86987 33.61256 20 ft 6 kts 136°
2026-05-05 10:38 34.86953 33.61295 22 ft 7 kts 135°
2026-05-05 10:38 34.86904 33.61353 18 ft 12 kts 136°
2026-05-05 10:38 34.86892 33.61439 20 ft 10 kts 61°
2026-05-05 10:38 34.86948 33.61509 18 ft 12 kts 44°
2026-05-05 10:39 34.87002 33.61575 19 ft 10 kts 46°
2026-05-05 10:39 34.87042 33.61625 21 ft 7 kts 45°
2026-05-05 10:39 34.87079 33.61671 23 ft 10 kts 46°
2026-05-05 10:39 34.87148 33.61755 21 ft 18 kts 45°
2026-05-05 10:40 34.87234 33.61860 21 ft 16 kts 45°
2026-05-05 10:40 34.87308 33.61951 21 ft 14 kts 45°
2026-05-05 10:40 34.87390 33.62052 18 ft 21 kts 44°
2026-05-05 10:40 34.87500 33.62185 18 ft 23 kts 46°
2026-05-05 10:41 34.87611 33.62327 18 ft 22 kts 46°
2026-05-05 10:41 34.87712 33.62449 18 ft 19 kts 43°
2026-05-05 10:41 34.87801 33.62551 18 ft 17 kts 43°
2026-05-05 10:41 34.87876 33.62639 20 ft 13 kts 44°
2026-05-05 10:42 34.87953 33.62801 23 ft 12 kts 115°
2026-05-05 10:42 34.87901 33.62865 21 ft 11 kts 138°
2026-05-05 10:42 34.87847 33.62946 22 ft 12 kts 154°
2026-05-05 10:43 34.87818 33.62932 21 ft 0 kts 223°
2026-05-05 10:43 34.87705 33.62797 22 ft 60 kts 225°
2026-05-05 10:43 34.87245 33.62233 18 ft 124 kts 225°
2026-05-05 10:43 34.86514 33.61348 159 ft 159 kts 223°
2026-05-05 10:44 34.85729 33.60395 897 ft 161 kts 222°
2026-05-05 10:44 34.84943 33.59431 1607 ft 163 kts 226°
2026-05-05 10:44 34.84131 33.58435 2064 ft 173 kts 228°
2026-05-05 10:44 34.83225 33.57316 2298 ft 196 kts 227°
2026-05-05 10:45 34.82182 33.56100 2560 ft 220 kts 217°
2026-05-05 10:45 34.80667 33.55551 2852 ft 244 kts 175°
2026-05-05 10:45 34.79049 33.56301 3261 ft 265 kts 144°
2026-05-05 10:45 34.77629 33.57807 4047 ft 274 kts 134°
2026-05-05 10:46 34.76297 33.59492 4883 ft 279 kts 134°
2026-05-05 10:46 34.74923 33.61207 5584 ft 284 kts 135°
2026-05-05 10:46 34.73486 33.62882 6361 ft 288 kts 137°
2026-05-05 10:46 34.71983 33.64513 7084 ft 292 kts 140°
2026-05-05 10:47 34.70417 33.66124 7816 ft 295 kts 141°
2026-05-05 10:47 34.68838 33.67696 8593 ft 296 kts 142°
2026-05-05 10:47 34.67208 33.69284 9354 ft 300 kts 144°
2026-05-05 10:47 34.65578 33.70856 10046 ft 303 kts 144°
2026-05-05 10:48 34.63906 33.72468 10663 ft 309 kts 144°
2026-05-05 10:48 34.62080 33.73972 10878 ft 328 kts 155°
2026-05-05 10:48 34.59944 33.75082 11004 ft 347 kts 163°
2026-05-05 10:48 34.57591 33.76118 11137 ft 368 kts 163°
2026-05-05 10:49 34.55151 33.77196 11394 ft 383 kts 163°
2026-05-05 10:49 34.52583 33.78133 11893 ft 386 kts 173°
2026-05-05 10:49 34.49905 33.78438 12440 ft 386 kts 185°
2026-05-05 10:49 34.47240 33.78067 13005 ft 384 kts 198°
2026-05-05 10:50 34.44733 33.77048 13556 ft 382 kts 210°
2026-05-05 10:50 34.42454 33.75423 14076 ft 379 kts 221°
2026-05-05 10:50 34.40308 33.73534 14639 ft 381 kts 222°
2026-05-05 10:50 34.38141 33.71648 15224 ft 383 kts 222°
2026-05-05 10:51 34.35978 33.69782 15808 ft 385 kts 222°
2026-05-05 10:51 34.33780 33.67894 16349 ft 388 kts 223°
2026-05-05 10:51 34.31567 33.65994 16852 ft 392 kts 223°
2026-05-05 10:51 34.29354 33.64094 17370 ft 394 kts 223°
2026-05-05 10:52 34.27102 33.62164 17937 ft 396 kts 223°
2026-05-05 10:52 34.24831 33.60217 18453 ft 398 kts 224°
2026-05-05 10:52 34.22594 33.58295 18887 ft 401 kts 224°
2026-05-05 10:52 34.20314 33.56337 19321 ft 404 kts 224°
2026-05-05 10:53 34.18013 33.54360 19730 ft 407 kts 224°
2026-05-05 10:53 34.15694 33.52371 20135 ft 410 kts 224°
2026-05-05 10:53 34.13353 33.50367 20489 ft 413 kts 223°
2026-05-05 10:53 34.10994 33.48348 20842 ft 417 kts 223°
2026-05-05 10:54 34.08648 33.46342 21216 ft 419 kts 223°
2026-05-05 10:54 34.06248 33.44289 21602 ft 422 kts 223°
2026-05-05 10:54 34.03844 33.42231 21972 ft 424 kts 223°
2026-05-05 10:54 34.01437 33.40176 22327 ft 427 kts 223°
2026-05-05 10:55 33.98995 33.38097 22674 ft 429 kts 223°
2026-05-05 10:55 33.96540 33.36006 22971 ft 432 kts 223°
2026-05-05 10:55 33.94098 33.33926 23339 ft 433 kts 223°
2026-05-05 10:55 33.91625 33.31819 23669 ft 435 kts 223°
2026-05-05 10:56 33.89149 33.29712 23952 ft 437 kts 222°
2026-05-05 10:56 33.86687 33.27620 24245 ft 438 kts 222°
2026-05-05 10:56 33.84179 33.25489 24524 ft 440 kts 222°
2026-05-05 10:56 33.81667 33.23356 24801 ft 441 kts 222°
2026-05-05 10:57 33.79169 33.21240 25061 ft 442 kts 222°
2026-05-05 10:57 33.76638 33.19098 25346 ft 443 kts 221°
2026-05-05 10:57 33.74137 33.16985 25621 ft 443 kts 221°
2026-05-05 10:57 33.71598 33.14837 25852 ft 445 kts 221°
2026-05-05 10:58 33.69052 33.12680 26023 ft 448 kts 221°
2026-05-05 10:58 33.66517 33.10534 26244 ft 450 kts 221°
2026-05-05 10:58 33.63938 33.08356 26461 ft 452 kts 221°
2026-05-05 10:58 33.61355 33.06179 26689 ft 453 kts 221°
2026-05-05 10:59 33.58803 33.04032 26902 ft 454 kts 221°
2026-05-05 10:59 33.56206 33.01846 27112 ft 455 kts 221°
2026-05-05 10:59 33.53606 32.99657 27361 ft 455 kts 221°
2026-05-05 10:59 33.51891 32.98213 27554 ft 454 kts 221°
2026-05-05 11:00 33.48453 32.95321 27962 ft 452 kts 221°
2026-05-05 11:00 33.46746 32.93887 28157 ft 451 kts 221°
2026-05-05 11:00 33.44166 32.91715 28455 ft 450 kts 221°
2026-05-05 11:00 33.41629 32.89580 28758 ft 448 kts 221°
2026-05-05 11:01 33.39047 32.87413 29068 ft 447 kts 221°
2026-05-05 11:01 33.36520 32.85296 29351 ft 447 kts 221°
2026-05-05 11:01 33.33969 32.83160 29657 ft 446 kts 221°
2026-05-05 11:01 33.31426 32.81035 29962 ft 445 kts 221°
2026-05-05 11:02 33.28909 32.78932 30233 ft 443 kts 221°
2026-05-05 11:02 33.26375 32.76815 30487 ft 442 kts 221°
2026-05-05 11:02 33.23848 32.74702 30740 ft 441 kts 220°
2026-05-05 11:02 33.21336 32.72604 31026 ft 439 kts 221°
2026-05-05 11:03 33.18858 32.70537 31292 ft 438 kts 221°
2026-05-05 11:03 33.16353 32.68451 31530 ft 437 kts 221°
2026-05-05 11:03 33.13883 32.66395 31786 ft 436 kts 221°
2026-05-05 11:03 33.11393 32.64327 32046 ft 435 kts 221°
2026-05-05 11:04 33.08911 32.62263 32306 ft 434 kts 221°
2026-05-05 11:04 33.06437 32.60212 32539 ft 433 kts 221°
2026-05-05 11:04 33.03966 32.58163 32808 ft 431 kts 221°
2026-05-05 11:04 33.01508 32.56126 33072 ft 430 kts 221°
2026-05-05 11:05 32.99087 32.54119 33326 ft 428 kts 221°
2026-05-05 11:05 32.96631 32.52082 33589 ft 427 kts 221°
2026-05-05 11:05 32.94187 32.50056 33842 ft 426 kts 221°
2026-05-05 11:05 32.91747 32.48031 34087 ft 425 kts 221°
2026-05-05 11:06 32.89348 32.46045 34266 ft 424 kts 221°
2026-05-05 11:06 32.86917 32.44046 34485 ft 423 kts 221°
2026-05-05 11:06 32.84493 32.42053 34684 ft 422 kts 222°
2026-05-05 11:06 32.82243 32.39924 34868 ft 413 kts 230°
2026-05-05 11:07 32.80331 32.37419 35004 ft 406 kts 239°
2026-05-05 11:07 32.77119 32.31893 35036 ft 409 kts 241°
2026-05-05 11:08 32.73859 32.26314 35045 ft 410 kts 241°
2026-05-05 11:08 32.70596 32.20742 35051 ft 410 kts 241°
2026-05-05 11:09 32.67359 32.15200 35047 ft 410 kts 241°
2026-05-05 11:09 32.64115 32.09669 35057 ft 410 kts 241°
2026-05-05 11:10 32.60851 32.04097 35054 ft 410 kts 241°
2026-05-05 11:10 32.57603 31.98539 35023 ft 411 kts 241°
2026-05-05 11:11 32.54346 31.92959 35051 ft 410 kts 241°
2026-05-05 11:11 32.51101 31.87419 35065 ft 410 kts 241°
2026-05-05 11:12 32.47851 31.81883 35079 ft 410 kts 241°
2026-05-05 11:12 32.44604 31.76364 35081 ft 410 kts 241°
2026-05-05 11:13 32.41335 31.70812 35046 ft 410 kts 242°
2026-05-05 11:13 32.38087 31.65296 35068 ft 409 kts 242°
2026-05-05 11:14 32.34813 31.59753 35082 ft 409 kts 241°
2026-05-05 11:14 32.31568 31.54251 35085 ft 408 kts 242°
2026-05-05 11:15 32.28326 31.48774 35088 ft 408 kts 242°
2026-05-05 11:15 32.25075 31.43287 35067 ft 408 kts 242°
2026-05-05 11:16 32.21804 31.37779 35081 ft 408 kts 242°
2026-05-05 11:16 32.18554 31.32322 35093 ft 408 kts 242°
2026-05-05 11:17 32.15285 31.26831 35095 ft 408 kts 242°
2026-05-05 11:17 32.12037 31.21366 35092 ft 408 kts 242°
2026-05-05 11:18 32.08776 31.15908 35063 ft 408 kts 242°
2026-05-05 11:18 32.05111 31.10736 35077 ft 423 kts 226°
2026-05-05 11:18 32.02565 31.08859 35080 ft 439 kts 213°
2026-05-05 11:19 31.99620 31.07747 35079 ft 457 kts 198°
2026-05-05 11:19 31.96366 31.07555 35081 ft 476 kts 184°
2026-05-05 11:19 31.93078 31.07914 35080 ft 478 kts 183°
2026-05-05 11:20 31.86436 31.08663 35076 ft 479 kts 183°
2026-05-05 11:20 31.79769 31.09390 35081 ft 480 kts 184°
2026-05-05 11:21 31.73153 31.10092 35089 ft 480 kts 184°
2026-05-05 11:21 31.66480 31.10803 35095 ft 480 kts 184°
2026-05-05 11:22 31.59819 31.11524 35082 ft 480 kts 184°
2026-05-05 11:22 31.53180 31.12240 35096 ft 480 kts 183°
2026-05-05 11:23 31.46554 31.13243 35105 ft 484 kts 179°
2026-05-05 11:23 31.39876 31.14599 35068 ft 485 kts 178°
2026-05-05 11:24 31.33269 31.15955 35095 ft 483 kts 179°
2026-05-05 11:24 31.26669 31.17212 35107 ft 481 kts 180°
2026-05-05 11:25 31.20033 31.18424 35102 ft 481 kts 180°
2026-05-05 11:25 31.13452 31.19633 35074 ft 480 kts 180°
2026-05-05 11:26 31.06845 31.20863 35095 ft 479 kts 180°
2026-05-05 11:26 31.00296 31.22090 35095 ft 478 kts 180°
2026-05-05 11:27 30.93707 31.23314 35095 ft 477 kts 180°
2026-05-05 11:27 30.87182 31.24519 35052 ft 476 kts 180°
2026-05-05 11:28 30.80659 31.25717 35087 ft 475 kts 180°
2026-05-05 11:28 30.74107 31.26927 35094 ft 474 kts 180°
2026-05-05 11:29 30.67620 31.28126 35091 ft 473 kts 180°
2026-05-05 11:29 30.61115 31.29325 35071 ft 472 kts 180°
2026-05-05 11:30 30.54613 31.30526 35080 ft 472 kts 180°
2026-05-05 11:30 30.48105 31.31721 35086 ft 471 kts 180°
2026-05-05 11:31 30.41643 31.32905 35093 ft 471 kts 180°
2026-05-05 11:31 30.35192 31.34093 35065 ft 470 kts 180°
2026-05-05 11:32 30.28721 31.35290 35086 ft 469 kts 180°
2026-05-05 11:32 30.22306 31.36462 35111 ft 469 kts 180°
2026-05-05 11:33 30.15852 31.37637 35099 ft 468 kts 180°
2026-05-05 11:33 30.09499 31.39458 35089 ft 483 kts 165°
2026-05-05 11:33 30.06462 31.41261 35097 ft 494 kts 154°
2026-05-05 11:34 30.03634 31.43598 35105 ft 499 kts 150°
2026-05-05 11:34 29.98103 31.48364 35099 ft 499 kts 150°
2026-05-05 11:35 29.92553 31.53112 35093 ft 498 kts 151°
2026-05-05 11:35 29.86956 31.57870 35097 ft 498 kts 151°
2026-05-05 11:36 29.81502 31.62505 35072 ft 498 kts 150°
2026-05-05 11:36 29.75949 31.67220 35096 ft 497 kts 150°
2026-05-05 11:37 29.70352 31.71972 35104 ft 497 kts 150°
2026-05-05 11:37 29.64806 31.76673 35105 ft 497 kts 150°
2026-05-05 11:38 29.59256 31.81369 35102 ft 496 kts 151°
2026-05-05 11:38 29.53688 31.86072 35101 ft 496 kts 151°
2026-05-05 11:39 29.48131 31.90756 35080 ft 495 kts 151°
2026-05-05 11:39 29.42579 31.95433 35104 ft 495 kts 151°
2026-05-05 11:40 29.37039 32.00090 35103 ft 495 kts 151°
2026-05-05 11:40 29.31469 32.04767 35104 ft 495 kts 151°
2026-05-05 11:41 29.25916 32.09429 35098 ft 494 kts 151°
2026-05-05 11:41 29.20373 32.14065 35098 ft 494 kts 151°
2026-05-05 11:42 29.14853 32.18678 35096 ft 494 kts 151°
2026-05-05 11:42 29.09299 32.23324 35092 ft 494 kts 151°
2026-05-05 11:43 29.03772 32.27941 35091 ft 493 kts 151°
2026-05-05 11:43 28.98203 32.32576 35096 ft 493 kts 151°
2026-05-05 11:44 28.92661 32.37185 35081 ft 493 kts 151°
2026-05-05 11:44 28.87097 32.41803 35056 ft 493 kts 151°
2026-05-05 11:45 28.81567 32.46390 35077 ft 493 kts 151°
2026-05-05 11:45 28.76047 32.50961 35083 ft 491 kts 151°
2026-05-05 11:46 28.71432 32.54783 35086 ft 491 kts 151°
2026-05-05 11:46 28.65916 32.59340 35087 ft 491 kts 151°
2026-05-05 11:47 28.60365 32.63926 35090 ft 491 kts 152°
2026-05-05 11:47 28.54818 32.68492 35052 ft 491 kts 152°
2026-05-05 11:48 28.46549 32.75296 35064 ft 491 kts 151°
2026-05-05 11:48 28.41013 32.79858 35070 ft 491 kts 151°
2026-05-05 11:49 28.35462 32.84423 35070 ft 491 kts 152°
2026-05-05 11:49 28.29937 32.88957 35075 ft 491 kts 152°
2026-05-05 11:50 28.24404 32.93471 35071 ft 491 kts 152°
2026-05-05 11:50 28.18875 32.97985 35039 ft 491 kts 152°
2026-05-05 11:51 28.13322 33.02528 35053 ft 491 kts 152°
2026-05-05 11:51 28.07763 33.07060 35048 ft 491 kts 152°
2026-05-05 11:52 28.02244 33.11551 35053 ft 491 kts 152°
2026-05-05 11:52 27.96701 33.16065 35024 ft 491 kts 152°
2026-05-05 11:53 27.91143 33.20590 35009 ft 490 kts 152°
2026-05-05 11:53 27.85624 33.25070 35034 ft 489 kts 152°
2026-05-05 11:54 27.80124 33.29522 35039 ft 489 kts 152°
2026-05-05 11:54 27.74591 33.34005 35040 ft 488 kts 152°
2026-05-05 11:55 27.69087 33.38458 35032 ft 488 kts 152°
2026-05-05 11:55 27.63545 33.42934 35031 ft 488 kts 152°
2026-05-05 11:56 27.58037 33.47371 35006 ft 487 kts 152°
2026-05-05 11:56 27.52535 33.51794 35020 ft 487 kts 152°
2026-05-05 11:57 27.47044 33.56213 35021 ft 486 kts 152°
2026-05-05 11:57 27.41528 33.60641 35020 ft 486 kts 152°
2026-05-05 11:58 27.36027 33.65046 35021 ft 486 kts 152°
2026-05-05 11:58 27.30509 33.69469 34992 ft 485 kts 152°
2026-05-05 11:59 27.25022 33.73855 34998 ft 485 kts 152°
2026-05-05 11:59 27.19744 33.78606 35015 ft 496 kts 140°
2026-05-05 12:00 27.17556 33.81657 35014 ft 505 kts 129°
2026-05-05 12:00 27.15829 33.85140 35016 ft 513 kts 118°
2026-05-05 12:00 27.13188 33.92604 35015 ft 515 kts 116°
2026-05-05 12:01 27.10528 34.00090 35009 ft 515 kts 117°
2026-05-05 12:01 27.07869 34.07508 35014 ft 515 kts 117°
2026-05-05 12:02 27.05188 34.15001 35008 ft 515 kts 117°
2026-05-05 12:02 27.02531 34.22428 34999 ft 514 kts 117°
2026-05-05 12:03 26.99860 34.29877 35005 ft 514 kts 117°
2026-05-05 12:03 26.97195 34.37290 35005 ft 514 kts 117°
2026-05-05 12:04 26.94517 34.44723 35003 ft 514 kts 117°
2026-05-05 12:04 26.91839 34.52137 34999 ft 514 kts 117°
2026-05-05 12:05 26.89141 34.59592 34998 ft 514 kts 118°
2026-05-05 12:05 26.86454 34.67002 34999 ft 515 kts 118°
2026-05-05 12:06 26.83750 34.74451 34984 ft 515 kts 118°
2026-05-05 12:06 26.81068 34.81845 34989 ft 515 kts 118°
2026-05-05 12:07 26.78357 34.89291 34993 ft 515 kts 118°
2026-05-05 12:07 26.75657 34.96682 34995 ft 515 kts 118°
2026-05-05 12:08 26.72952 35.04067 34985 ft 515 kts 118°
2026-05-05 12:08 26.70221 35.11516 34983 ft 515 kts 118°
2026-05-05 12:09 26.67514 35.18901 34989 ft 515 kts 118°
2026-05-05 12:09 26.64799 35.26289 34979 ft 515 kts 118°
2026-05-05 12:10 26.62068 35.33720 34984 ft 515 kts 118°
2026-05-05 12:10 26.59352 35.41093 34984 ft 515 kts 118°
2026-05-05 12:11 26.56602 35.48516 34984 ft 515 kts 118°
2026-05-05 12:11 26.53831 35.55865 34977 ft 515 kts 119°
2026-05-05 12:12 26.51006 35.63231 34981 ft 515 kts 120°
2026-05-05 12:12 26.48188 35.70550 34980 ft 515 kts 120°
2026-05-05 12:13 26.45373 35.77879 34934 ft 515 kts 120°
2026-05-05 12:13 26.42553 35.85245 34956 ft 515 kts 120°
2026-05-05 12:14 26.39749 35.92550 34969 ft 515 kts 120°
2026-05-05 12:14 26.36915 35.99914 34975 ft 515 kts 120°
2026-05-05 12:15 26.34090 36.07230 34976 ft 515 kts 120°
2026-05-05 12:15 26.31243 36.14573 34976 ft 515 kts 120°
2026-05-05 12:16 26.28413 36.21873 34976 ft 515 kts 120°
2026-05-05 12:16 26.25578 36.29177 34952 ft 515 kts 120°
2026-05-05 12:17 26.22728 36.36516 34958 ft 515 kts 120°
2026-05-05 12:17 26.19886 36.43818 34960 ft 515 kts 120°
2026-05-05 12:18 26.16859 36.51028 34954 ft 509 kts 126°
2026-05-05 12:18 26.13470 36.57905 34959 ft 509 kts 126°
2026-05-05 12:19 26.10045 36.64849 34962 ft 510 kts 126°
2026-05-05 12:19 26.06651 36.71735 34964 ft 510 kts 126°
2026-05-05 12:20 26.03243 36.78630 34947 ft 510 kts 127°
2026-05-05 12:20 25.99804 36.85554 34955 ft 510 kts 127°
2026-05-05 12:21 25.96387 36.92445 34957 ft 510 kts 126°
2026-05-05 12:21 25.92957 36.99364 34942 ft 510 kts 127°
2026-05-05 12:22 25.89537 37.06236 34941 ft 510 kts 127°
2026-05-05 12:22 25.86089 37.13151 34941 ft 511 kts 127°
2026-05-05 12:23 25.82669 37.20026 34943 ft 511 kts 127°
2026-05-05 12:23 25.79221 37.26940 34930 ft 511 kts 127°
2026-05-05 12:24 25.75790 37.33817 34937 ft 511 kts 127°
2026-05-05 12:24 25.72340 37.40742 34917 ft 511 kts 127°
2026-05-05 12:25 25.68909 37.47617 34927 ft 512 kts 127°
2026-05-05 12:25 25.65460 37.54512 34913 ft 512 kts 128°
2026-05-05 12:26 25.61994 37.61439 34945 ft 512 kts 128°
2026-05-05 12:26 25.58558 37.68314 34942 ft 513 kts 128°
2026-05-05 12:27 25.55104 37.75207 34927 ft 513 kts 128°
2026-05-05 12:27 25.51631 37.82110 34921 ft 513 kts 128°
2026-05-05 12:28 25.48144 37.89035 34925 ft 514 kts 128°
2026-05-05 12:28 25.44663 37.95937 34910 ft 514 kts 128°
2026-05-05 12:29 25.41175 38.02829 34895 ft 515 kts 128°
2026-05-05 12:29 25.37665 38.09772 34896 ft 516 kts 128°
2026-05-05 12:30 25.34167 38.16693 34891 ft 517 kts 128°
2026-05-05 12:30 25.30665 38.23603 34870 ft 516 kts 128°
2026-05-05 12:31 25.27136 38.30543 34887 ft 516 kts 128°
2026-05-05 12:31 25.23625 38.37431 34894 ft 516 kts 128°
2026-05-05 12:32 25.20118 38.44311 34896 ft 516 kts 128°
2026-05-05 12:32 25.16598 38.51223 34904 ft 516 kts 128°
2026-05-05 12:33 25.13088 38.58087 34905 ft 516 kts 128°
2026-05-05 12:33 25.10139 38.63832 34874 ft 515 kts 128°
2026-05-05 12:34 25.06023 38.71853 34886 ft 515 kts 128°
2026-05-05 12:34 25.03087 38.77567 34904 ft 514 kts 128°
2026-05-05 12:35 24.99544 38.84445 34907 ft 514 kts 128°
2026-05-05 12:35 24.96003 38.91302 34888 ft 514 kts 128°
2026-05-05 12:36 24.92476 38.98117 34905 ft 514 kts 128°
2026-05-05 12:36 24.88929 39.04942 34914 ft 515 kts 128°
2026-05-05 12:37 24.85375 39.11811 34921 ft 514 kts 128°
2026-05-05 12:37 24.81823 39.18663 34916 ft 514 kts 128°
2026-05-05 12:38 24.78294 39.25463 34925 ft 514 kts 128°
2026-05-05 12:38 24.74733 39.32318 34929 ft 514 kts 128°
2026-05-05 12:39 24.71155 39.39166 34921 ft 514 kts 128°
2026-05-05 12:39 24.67611 39.45971 34928 ft 514 kts 128°
2026-05-05 12:40 24.64066 39.52761 34938 ft 514 kts 128°
2026-05-05 12:40 24.60498 39.59566 34935 ft 512 kts 129°
2026-05-05 12:41 24.56934 39.66370 34934 ft 515 kts 126°
2026-05-05 12:41 24.55492 39.69971 34935 ft 526 kts 116°
2026-05-05 12:41 24.54527 39.73907 34929 ft 535 kts 106°
2026-05-05 12:42 24.53668 39.82046 34917 ft 539 kts 101°
2026-05-05 12:42 24.52866 39.90259 34919 ft 539 kts 102°
2026-05-05 12:43 24.52061 39.98451 34925 ft 540 kts 101°
2026-05-05 12:43 24.51272 40.06608 34916 ft 540 kts 101°
2026-05-05 12:44 24.50474 40.14845 34922 ft 540 kts 102°
2026-05-05 12:44 24.49665 40.23027 34924 ft 540 kts 101°
2026-05-05 12:45 24.48862 40.31233 34920 ft 540 kts 102°
2026-05-05 12:45 24.48047 40.39402 34925 ft 540 kts 102°
2026-05-05 12:46 24.47230 40.47571 34912 ft 540 kts 102°
2026-05-05 12:46 24.46411 40.55780 34923 ft 539 kts 102°
2026-05-05 12:47 24.45587 40.63941 34932 ft 539 kts 102°
2026-05-05 12:47 24.44753 40.72096 34947 ft 539 kts 102°
2026-05-05 12:48 24.43914 40.80257 34938 ft 539 kts 102°
2026-05-05 12:48 24.43064 40.88462 34931 ft 539 kts 102°
2026-05-05 12:49 24.42211 40.96624 34920 ft 539 kts 102°
2026-05-05 12:49 24.41361 41.04810 34928 ft 538 kts 102°
2026-05-05 12:50 24.40520 41.12937 34938 ft 538 kts 102°
2026-05-05 12:50 24.39668 41.21117 34935 ft 537 kts 102°
2026-05-05 12:51 24.38816 41.29231 34934 ft 537 kts 102°
2026-05-05 12:51 24.37960 41.37339 34936 ft 536 kts 102°
2026-05-05 12:52 24.37078 41.45506 34944 ft 536 kts 102°
2026-05-05 12:52 24.36208 41.53601 34948 ft 536 kts 102°
2026-05-05 12:53 24.35337 41.61743 34938 ft 535 kts 102°
2026-05-05 12:53 24.34461 41.69835 34949 ft 535 kts 102°
2026-05-05 12:54 24.33087 41.81939 34965 ft 531 kts 107°
2026-05-05 12:55 24.31204 41.89656 34961 ft 525 kts 112°
2026-05-05 12:55 24.29171 41.97363 34961 ft 525 kts 112°
2026-05-05 12:56 24.27155 42.05025 34958 ft 525 kts 112°
2026-05-05 12:56 24.25122 42.12730 34966 ft 524 kts 112°
2026-05-05 12:57 24.23099 42.20378 34956 ft 524 kts 112°
2026-05-05 12:57 24.21076 42.28044 34970 ft 524 kts 112°
2026-05-05 12:58 24.19035 42.35727 34975 ft 523 kts 112°
2026-05-05 12:58 24.16992 42.43354 34967 ft 523 kts 112°
2026-05-05 12:59 24.14959 42.50966 34980 ft 522 kts 112°
2026-05-05 12:59 24.12910 42.58621 34988 ft 522 kts 112°
2026-05-05 13:00 24.09850 42.70018 34992 ft 521 kts 112°
2026-05-05 13:01 24.05762 42.85213 34998 ft 520 kts 112°
2026-05-05 13:01 24.03702 42.92847 34997 ft 520 kts 112°
2026-05-05 13:02 24.01649 43.00410 34994 ft 520 kts 112°
2026-05-05 13:02 23.99597 43.07962 34991 ft 520 kts 112°
2026-05-05 13:03 23.97536 43.15576 34995 ft 520 kts 112°
2026-05-05 13:03 23.95482 43.23145 34983 ft 520 kts 112°
2026-05-05 13:04 23.93409 43.30739 34986 ft 520 kts 112°
2026-05-05 13:04 23.91339 43.38290 34987 ft 521 kts 112°
2026-05-05 13:05 23.89255 43.45895 34975 ft 521 kts 112°
2026-05-05 13:05 23.87189 43.53429 34969 ft 521 kts 112°
2026-05-05 13:06 23.85098 43.61030 34958 ft 521 kts 112°
2026-05-05 13:06 23.83011 43.68588 34953 ft 520 kts 112°
2026-05-05 13:07 23.80916 43.76149 34948 ft 519 kts 112°
2026-05-05 13:07 23.78820 43.83686 34925 ft 519 kts 112°
2026-05-05 13:08 23.77199 43.91365 34923 ft 526 kts 98°
2026-05-05 13:08 23.76627 43.99315 34920 ft 526 kts 98°
2026-05-05 13:09 23.76045 44.07242 34908 ft 525 kts 98°
2026-05-05 13:09 23.75439 44.15209 34937 ft 525 kts 98°
2026-05-05 13:10 23.74831 44.23127 34904 ft 525 kts 98°
2026-05-05 13:10 23.74227 44.31094 34905 ft 525 kts 98°
2026-05-05 13:11 23.73627 44.39013 34905 ft 525 kts 98°
2026-05-05 13:11 23.73019 44.46934 34909 ft 524 kts 98°
2026-05-05 13:12 23.72408 44.54881 34912 ft 524 kts 98°
2026-05-05 13:12 23.71795 44.62774 34896 ft 523 kts 98°
2026-05-05 13:13 23.71171 44.70698 34900 ft 522 kts 98°
2026-05-05 13:13 23.70549 44.78572 34893 ft 522 kts 98°
2026-05-05 13:14 23.69924 44.86474 34891 ft 521 kts 98°
2026-05-05 13:14 23.69291 44.94339 34891 ft 521 kts 98°
2026-05-05 13:15 23.68654 45.02237 34879 ft 521 kts 98°
2026-05-05 13:15 23.68019 45.10071 34874 ft 521 kts 98°
2026-05-05 13:16 23.67374 45.17929 34864 ft 520 kts 98°
2026-05-05 13:16 23.66729 45.25803 34860 ft 520 kts 98°
2026-05-05 13:17 23.66086 45.33644 34849 ft 520 kts 98°
2026-05-05 13:17 23.65436 45.41460 34842 ft 520 kts 98°
2026-05-05 13:18 23.64772 45.49346 34829 ft 520 kts 98°
2026-05-05 13:18 23.64108 45.57196 34816 ft 520 kts 98°
2026-05-05 13:19 23.63452 45.65019 34820 ft 519 kts 98°
2026-05-05 13:19 23.62792 45.72838 34822 ft 518 kts 98°
2026-05-05 13:20 23.62235 45.79356 34820 ft 518 kts 98°
2026-05-05 13:20 23.61553 45.87144 34826 ft 517 kts 98°
2026-05-05 13:21 23.60862 45.94978 34830 ft 517 kts 98°
2026-05-05 13:21 23.60184 46.02762 34828 ft 517 kts 98°
2026-05-05 13:22 23.59508 46.10579 34822 ft 517 kts 98°
2026-05-05 13:22 23.58826 46.18362 34822 ft 518 kts 98°
2026-05-05 13:23 23.58131 46.26200 34827 ft 518 kts 98°
2026-05-05 13:23 23.57434 46.33994 34821 ft 518 kts 98°
2026-05-05 13:24 23.56728 46.41790 34822 ft 518 kts 99°
2026-05-05 13:24 23.56021 46.49628 34824 ft 519 kts 98°
2026-05-05 13:25 23.55313 46.57430 34814 ft 518 kts 99°
2026-05-05 13:25 23.54606 46.65234 34804 ft 518 kts 98°
2026-05-05 13:26 23.53899 46.73059 34814 ft 517 kts 98°
2026-05-05 13:26 23.53184 46.80837 34812 ft 517 kts 99°
2026-05-05 13:27 23.52456 46.88644 34805 ft 516 kts 99°
2026-05-05 13:27 23.51731 46.96405 34802 ft 516 kts 99°
2026-05-05 13:28 23.50998 47.04172 34801 ft 516 kts 99°
2026-05-05 13:28 23.50264 47.11932 34791 ft 517 kts 99°
2026-05-05 13:29 23.49525 47.19738 34787 ft 516 kts 99°
2026-05-05 13:29 23.48788 47.27478 34793 ft 515 kts 99°
2026-05-05 13:30 23.48038 47.35260 34791 ft 515 kts 99°
2026-05-05 13:30 23.47290 47.42992 34790 ft 514 kts 99°
2026-05-05 13:31 23.46544 47.50746 34789 ft 514 kts 99°
2026-05-05 13:31 23.45795 47.58457 34786 ft 513 kts 99°
2026-05-05 13:32 23.45041 47.66162 34786 ft 513 kts 99°
2026-05-05 13:32 23.44276 47.73916 34781 ft 512 kts 99°
2026-05-05 13:33 23.43898 47.77733 35012 ft 510 kts 99°
2026-05-05 13:33 23.43521 47.81541 35233 ft 508 kts 99°
2026-05-05 13:33 23.43137 47.85373 35435 ft 507 kts 99°
2026-05-05 13:33 23.42752 47.89205 35618 ft 506 kts 99°
2026-05-05 13:34 23.42371 47.93018 35786 ft 505 kts 99°
2026-05-05 13:34 23.41995 47.96783 35954 ft 505 kts 99°
2026-05-05 13:34 23.41613 48.00588 36112 ft 505 kts 99°
2026-05-05 13:34 23.41231 48.04389 36272 ft 504 kts 99°
2026-05-05 13:35 23.40853 48.08146 36415 ft 504 kts 99°
2026-05-05 13:35 23.40470 48.11952 36559 ft 504 kts 99°
2026-05-05 13:35 23.40093 48.15718 36711 ft 503 kts 99°
2026-05-05 13:35 23.39709 48.19523 36748 ft 504 kts 99°
2026-05-05 13:36 23.38935 48.27114 36747 ft 502 kts 99°
2026-05-05 13:36 23.38174 48.34652 36730 ft 501 kts 98°
2026-05-05 13:37 23.37710 48.42196 36736 ft 502 kts 95°
2026-05-05 13:37 23.37522 48.49811 36732 ft 503 kts 94°
2026-05-05 13:38 23.37319 48.57436 36736 ft 503 kts 95°
2026-05-05 13:38 23.37009 48.65021 36738 ft 503 kts 95°
2026-05-05 13:39 23.36658 48.72597 36745 ft 503 kts 95°
2026-05-05 13:39 23.36314 48.80206 36743 ft 503 kts 95°
2026-05-05 13:40 23.35992 48.87778 36746 ft 503 kts 95°
2026-05-05 13:40 23.35679 48.95401 36741 ft 502 kts 95°
2026-05-05 13:41 23.35353 49.02978 36745 ft 502 kts 95°
2026-05-05 13:41 23.34625 49.10477 36736 ft 498 kts 102°
2026-05-05 13:42 23.33546 49.17960 36737 ft 498 kts 102°
2026-05-05 13:42 23.32482 49.25387 36737 ft 498 kts 102°
2026-05-05 13:43 23.31413 49.32812 36739 ft 498 kts 102°
2026-05-05 13:43 23.30336 49.40260 36736 ft 498 kts 102°
2026-05-05 13:44 23.29261 49.47693 36727 ft 498 kts 102°
2026-05-05 13:44 23.28179 49.55130 36742 ft 498 kts 102°
2026-05-05 13:45 23.27091 49.62603 36741 ft 497 kts 102°
2026-05-05 13:45 23.26009 49.70001 36742 ft 497 kts 102°
2026-05-05 13:46 23.24909 49.77443 36743 ft 497 kts 102°
2026-05-05 13:46 23.23811 49.84833 36743 ft 497 kts 102°
2026-05-05 13:47 23.22705 49.92267 36741 ft 497 kts 102°
2026-05-05 13:47 23.21616 49.99669 36737 ft 497 kts 101°
2026-05-05 13:48 23.20507 50.07108 36743 ft 496 kts 102°
2026-05-05 13:48 23.19402 50.14473 36751 ft 496 kts 102°
2026-05-05 13:49 23.18295 50.21888 36749 ft 495 kts 102°
2026-05-05 13:49 23.17181 50.29267 36751 ft 495 kts 102°
2026-05-05 13:50 23.16057 50.36669 36749 ft 495 kts 102°
2026-05-05 13:50 23.14941 50.44014 36754 ft 495 kts 102°
2026-05-05 13:51 23.13822 50.51417 36757 ft 495 kts 102°
2026-05-05 13:51 23.12695 50.58810 36746 ft 495 kts 102°
2026-05-05 13:52 23.11575 50.66190 36754 ft 495 kts 101°
2026-05-05 13:52 23.10456 50.73530 36750 ft 494 kts 102°
2026-05-05 13:53 23.09313 50.80921 36756 ft 494 kts 102°
2026-05-05 13:53 23.08174 50.88259 36753 ft 494 kts 102°
2026-05-05 13:54 23.07035 50.95613 36751 ft 494 kts 102°
2026-05-05 13:54 23.05890 51.02981 36752 ft 495 kts 102°
2026-05-05 13:55 23.04743 51.10363 36738 ft 495 kts 102°
2026-05-05 13:55 23.03597 51.17697 36749 ft 494 kts 102°
2026-05-05 13:56 23.02436 51.25064 36758 ft 494 kts 102°
2026-05-05 13:56 23.01280 51.32404 36754 ft 493 kts 102°
2026-05-05 13:57 23.00122 51.39726 36758 ft 493 kts 102°
2026-05-05 13:57 22.98956 51.47088 36759 ft 493 kts 102°
2026-05-05 13:58 22.97799 51.54407 36754 ft 493 kts 102°
2026-05-05 13:58 22.96636 51.61718 36753 ft 493 kts 102°
2026-05-05 13:59 22.94865 51.72745 36754 ft 493 kts 102°
2026-05-05 14:00 22.93301 51.82495 36747 ft 493 kts 102°
2026-05-05 14:00 22.91921 51.91036 36751 ft 493 kts 102°
2026-05-05 14:01 22.90732 51.98358 36759 ft 494 kts 102°
2026-05-05 14:01 22.89534 52.05715 36759 ft 494 kts 102°
2026-05-05 14:02 22.88337 52.13060 36750 ft 494 kts 102°
2026-05-05 14:02 22.87147 52.20359 36757 ft 494 kts 102°
2026-05-05 14:03 22.85942 52.27720 36745 ft 494 kts 102°
2026-05-05 14:03 22.84741 52.35030 36756 ft 494 kts 102°
2026-05-05 14:04 22.83529 52.42388 36764 ft 494 kts 102°
2026-05-05 14:04 22.82443 52.49719 36749 ft 495 kts 95°
2026-05-05 14:05 22.82269 52.55940 36752 ft 496 kts 92°
2026-05-05 14:05 22.82089 52.63407 36749 ft 496 kts 93°
2026-05-05 14:06 22.81858 52.72129 36747 ft 497 kts 93°
2026-05-05 14:06 22.81661 52.79588 36753 ft 497 kts 93°
2026-05-05 14:07 22.81494 52.85849 36743 ft 497 kts 93°
2026-05-05 14:07 22.81288 52.93356 36752 ft 497 kts 93°
2026-05-05 14:08 22.81075 53.00811 36748 ft 497 kts 93°
2026-05-05 14:08 22.80866 53.08287 36747 ft 497 kts 93°
2026-05-05 14:09 22.80655 53.15788 36754 ft 496 kts 93°
2026-05-05 14:09 22.80438 53.23252 36751 ft 496 kts 93°
2026-05-05 14:10 22.80215 53.30720 36748 ft 496 kts 93°
2026-05-05 14:10 22.79985 53.38215 36750 ft 496 kts 93°
2026-05-05 14:11 22.79750 53.45664 36752 ft 496 kts 93°
2026-05-05 14:11 22.79520 53.53166 36744 ft 496 kts 93°
2026-05-05 14:12 22.79291 53.60616 36747 ft 496 kts 93°
2026-05-05 14:12 22.79054 53.68071 36744 ft 496 kts 93°
2026-05-05 14:13 22.78811 53.75561 36746 ft 496 kts 93°
2026-05-05 14:13 22.78564 53.83008 36744 ft 496 kts 93°
2026-05-05 14:14 22.78311 53.90496 36739 ft 496 kts 93°
2026-05-05 14:14 22.78109 53.97927 36745 ft 496 kts 89°
2026-05-05 14:15 22.79186 54.05310 36746 ft 496 kts 77°
2026-05-05 14:15 22.80672 54.12568 36744 ft 496 kts 78°
2026-05-05 14:16 22.82154 54.19894 36741 ft 496 kts 78°
2026-05-05 14:16 22.83621 54.27167 36740 ft 496 kts 78°
2026-05-05 14:17 22.85111 54.34500 36740 ft 496 kts 78°
2026-05-05 14:17 22.86580 54.41768 36743 ft 496 kts 78°
2026-05-05 14:18 22.88048 54.49095 36741 ft 496 kts 78°
2026-05-05 14:18 22.89505 54.56374 36741 ft 496 kts 78°
2026-05-05 14:19 22.90978 54.63695 36744 ft 496 kts 78°
2026-05-05 14:19 22.92445 54.71011 36744 ft 496 kts 78°
2026-05-05 14:20 22.93898 54.78289 36741 ft 496 kts 78°
2026-05-05 14:20 22.95354 54.85627 36741 ft 496 kts 78°
2026-05-05 14:21 22.96804 54.92967 36741 ft 496 kts 78°
2026-05-05 14:21 22.98248 55.00282 36741 ft 496 kts 78°
2026-05-05 14:22 22.99686 55.07592 36744 ft 496 kts 78°
2026-05-05 14:22 23.01251 55.14889 36742 ft 496 kts 70°
2026-05-05 14:23 23.02654 55.18262 36743 ft 494 kts 58°
2026-05-05 14:23 23.04650 55.21310 36742 ft 491 kts 46°
2026-05-05 14:23 23.07096 55.23837 36740 ft 487 kts 34°
2026-05-05 14:23 23.09936 55.25810 36737 ft 482 kts 23°
2026-05-05 14:24 23.13042 55.27158 36741 ft 477 kts 12°
2026-05-05 14:24 23.16246 55.28110 36745 ft 477 kts 11°
2026-05-05 14:24 23.22643 55.29984 36746 ft 477 kts 11°
2026-05-05 14:25 23.29076 55.31875 36743 ft 478 kts 11°
2026-05-05 14:25 23.35492 55.33767 36743 ft 478 kts 12°
2026-05-05 14:26 23.41931 55.35671 36747 ft 479 kts 12°
2026-05-05 14:26 23.48341 55.37570 36765 ft 479 kts 11°
2026-05-05 14:27 23.54751 55.39472 36757 ft 479 kts 11°
2026-05-05 14:27 23.61210 55.41385 36760 ft 479 kts 11°
2026-05-05 14:28 23.67621 55.43279 36762 ft 479 kts 11°
2026-05-05 14:28 23.74039 55.45154 36774 ft 478 kts 11°
2026-05-05 14:29 23.80494 55.47046 36773 ft 478 kts 11°
2026-05-05 14:29 23.86895 55.48949 36772 ft 478 kts 11°
2026-05-05 14:30 23.93339 55.50881 36773 ft 478 kts 11°
2026-05-05 14:30 23.99653 55.53137 36777 ft 484 kts 22°
2026-05-05 14:31 24.05243 55.57338 36794 ft 492 kts 39°
2026-05-05 14:31 24.10289 55.62354 36793 ft 493 kts 39°
2026-05-05 14:32 24.12839 55.64879 36458 ft 493 kts 39°
2026-05-05 14:32 24.15425 55.67437 35216 ft 502 kts 39°
2026-05-05 14:32 24.17989 55.69976 34436 ft 501 kts 39°
2026-05-05 14:32 24.20571 55.72540 33465 ft 499 kts 39°
2026-05-05 14:33 24.23150 55.75105 31967 ft 498 kts 39°
2026-05-05 14:33 24.25676 55.77615 30925 ft 492 kts 39°
2026-05-05 14:33 24.28229 55.80149 29779 ft 498 kts 39°
2026-05-05 14:33 24.30815 55.82715 28377 ft 503 kts 40°
2026-05-05 14:34 24.32546 55.84437 27526 ft 504 kts 40°
2026-05-05 14:34 24.35997 55.87876 25817 ft 505 kts 40°
2026-05-05 14:34 24.38593 55.90468 24601 ft 503 kts 40°
2026-05-05 14:34 24.41177 55.93047 23431 ft 500 kts 40°
2026-05-05 14:35 24.43743 55.95609 22406 ft 492 kts 41°
2026-05-05 14:35 24.46231 55.98095 21518 ft 484 kts 40°
2026-05-05 14:35 24.48706 56.00567 20647 ft 477 kts 40°
2026-05-05 14:35 24.51158 56.03014 19800 ft 471 kts 41°
2026-05-05 14:36 24.53571 56.05426 18996 ft 465 kts 40°
2026-05-05 14:36 24.55955 56.07811 18221 ft 460 kts 41°
2026-05-05 14:36 24.58382 56.10016 17395 ft 453 kts 33°
2026-05-05 14:36 24.61104 56.11708 16609 ft 446 kts 24°
2026-05-05 14:37 24.64023 56.12812 15834 ft 441 kts 13°
2026-05-05 14:37 24.67027 56.13414 15076 ft 436 kts
2026-05-05 14:37 24.70022 56.13961 14365 ft 432 kts
2026-05-05 14:37 24.72902 56.14491 14192 ft 414 kts
2026-05-05 14:38 24.75646 56.14996 14005 ft 382 kts
2026-05-05 14:38 24.78198 56.15187 13877 ft 353 kts 357°
2026-05-05 14:38 24.80546 56.14842 13763 ft 327 kts 346°
2026-05-05 14:38 24.82612 56.14087 13636 ft 306 kts 336°
2026-05-05 14:39 24.84526 56.13143 13224 ft 296 kts 335°
2026-05-05 14:39 24.86397 56.12220 12725 ft 291 kts 335°
2026-05-05 14:39 24.88215 56.11326 12650 ft 290 kts 335°
2026-05-05 14:39 24.90060 56.10419 12554 ft 289 kts 335°
2026-05-05 14:40 24.91906 56.09511 12429 ft 289 kts 335°
2026-05-05 14:40 24.93741 56.08608 12298 ft 288 kts 335°
2026-05-05 14:40 24.95549 56.07717 12169 ft 288 kts 334°
2026-05-05 14:40 24.97303 56.06650 12043 ft 286 kts 321°
2026-05-05 14:41 24.98721 56.05159 11973 ft 286 kts 311°
2026-05-05 14:41 25.00055 56.03528 11737 ft 284 kts 311°
2026-05-05 14:41 25.01376 56.01912 11440 ft 282 kts 311°
2026-05-05 14:41 25.02691 56.00302 11121 ft 281 kts 310°
2026-05-05 14:42 25.03999 55.98700 10813 ft 280 kts 310°
2026-05-05 14:42 25.05287 55.97124 10500 ft 279 kts 310°
2026-05-05 14:42 25.06582 55.95543 10007 ft 276 kts 310°
2026-05-05 14:42 25.07865 55.93973 9455 ft 274 kts 310°
2026-05-05 14:43 25.09139 55.92413 8882 ft 272 kts 310°
2026-05-05 14:43 25.10382 55.90890 8305 ft 269 kts 310°
2026-05-05 14:43 25.11632 55.89355 7743 ft 266 kts 310°
2026-05-05 14:43 25.12870 55.87834 7191 ft 266 kts 311°
2026-05-05 14:44 25.14094 55.86330 6844 ft 264 kts 311°
2026-05-05 14:44 25.15321 55.84810 6145 ft 268 kts 309°
2026-05-05 14:44 25.16220 55.82958 5110 ft 280 kts 283°
2026-05-05 14:44 25.16223 55.80839 4397 ft 281 kts 254°
2026-05-05 14:45 25.15477 55.78866 4142 ft 272 kts 243°
2026-05-05 14:45 25.14654 55.77033 4019 ft 263 kts 243°
2026-05-05 14:45 25.13838 55.75252 4017 ft 264 kts 242°
2026-05-05 14:45 25.13083 55.73399 4015 ft 265 kts 256°
2026-05-05 14:46 25.12911 55.71383 3876 ft 263 kts 270°
2026-05-05 14:46 25.12951 55.69386 3646 ft 255 kts 272°
2026-05-05 14:46 25.13013 55.67467 3524 ft 245 kts 272°
2026-05-05 14:46 25.13076 55.65639 3313 ft 238 kts 272°
2026-05-05 14:47 25.13138 55.63817 3013 ft 237 kts 272°
2026-05-05 14:47 25.13197 55.62001 2751 ft 235 kts 272°
2026-05-05 14:47 25.13256 55.60189 2423 ft 236 kts 272°
2026-05-05 14:47 25.13346 55.58408 2173 ft 233 kts 282°
2026-05-05 14:48 25.13963 55.56789 2040 ft 231 kts 303°
2026-05-05 14:48 25.14813 55.55270 2012 ft 233 kts 303°
2026-05-05 14:48 25.15660 55.53756 2010 ft 229 kts 303°
2026-05-05 14:48 25.16485 55.52276 2008 ft 229 kts 303°
2026-05-05 14:49 25.17305 55.50801 2005 ft 217 kts 303°
2026-05-05 14:49 25.18058 55.49445 1986 ft 202 kts 305°
2026-05-05 14:49 25.18781 55.48146 1756 ft 193 kts 305°
2026-05-05 14:49 25.19462 55.46919 1522 ft 180 kts 307°
2026-05-05 14:50 25.20095 55.45779 1313 ft 168 kts 307°
2026-05-05 14:50 25.20680 55.44727 1095 ft 155 kts 304°
2026-05-05 14:50 25.21229 55.43739 929 ft 148 kts 304°
2026-05-05 14:50 25.21753 55.42779 754 ft 142 kts 305°
2026-05-05 14:51 25.22274 55.41849 522 ft 143 kts 307°
2026-05-05 14:51 25.22788 55.40941 351 ft 140 kts 303°
2026-05-05 14:51 25.23296 55.40022 196 ft 140 kts 302°
2026-05-05 14:51 25.23796 55.39108 35 ft 132 kts 302°
2026-05-05 14:52 25.24213 55.38364 27 ft 90 kts 301°
2026-05-05 14:52 25.24394 55.38036 29 ft 66 kts 300°
2026-05-05 14:52 25.24591 55.37647 24 ft 30 kts 286°
2026-05-05 14:52 25.24613 55.37495 22 ft 29 kts 271°
2026-05-05 14:53 25.24614 55.37420 22 ft 0 kts 271°
2026-05-05 14:53 25.24614 55.37400 22 ft 5 kts 271°
2026-05-05 14:54 25.24616 55.37347 22 ft 11 kts 272°
2026-05-05 14:54 25.24629 55.37251 22 ft 14 kts 293°
2026-05-05 14:54 25.24685 55.37153 22 ft 16 kts 303°
2026-05-05 14:54 25.24744 55.37049 23 ft 18 kts 301°
2026-05-05 14:55 25.24813 55.36926 22 ft 20 kts 302°
2026-05-05 14:55 25.24874 55.36785 22 ft 21 kts 284°
2026-05-05 14:55 25.24915 55.36623 21 ft 23 kts 296°
2026-05-05 14:55 25.25001 55.36470 22 ft 24 kts 303°
2026-05-05 14:56 25.25094 55.36311 22 ft 25 kts 302°
2026-05-05 14:56 25.25186 55.36145 22 ft 26 kts 301°
2026-05-05 14:56 25.25279 55.35980 21 ft 24 kts 302°
2026-05-05 14:56 25.25368 55.35822 21 ft 25 kts 302°
2026-05-05 14:57 25.25460 55.35656 23 ft 26 kts 301°
2026-05-05 14:57 25.25556 55.35486 21 ft 26 kts 302°
2026-05-05 14:57 25.25643 55.35332 21 ft 18 kts 302°
2026-05-05 14:57 25.25714 55.35205 21 ft 20 kts 302°
2026-05-05 14:58 25.25788 55.35065 21 ft 22 kts 300°
2026-05-05 14:58 25.25872 55.34917 22 ft 23 kts 302°
2026-05-05 14:58 25.25959 55.34765 21 ft 24 kts 301°
2026-05-05 14:58 25.26046 55.34608 21 ft 23 kts 302°
2026-05-05 14:59 25.26114 55.34483 21 ft 15 kts 294°
2026-05-05 14:59 25.26062 55.34415 21 ft 12 kts 209°
2026-05-05 14:59 25.26013 55.34383 21 ft 7 kts 211°
2026-05-05 14:59 25.25972 55.34354 24 ft 6 kts 211°
2026-05-05 15:00 25.25963 55.34349 21 ft 0 kts 211°